SCP
0 0 0 0 0 0 0 0 0 0 0 0 0 0 0 0 0 0 0 0 0 0 0 0 0 0 0 0 0 0 0 0 0 0 0 0 0 0 0 0 0 0 0
0 0 0 0 0 0 0 0 0 0 0 0 0 0 0 0 0 0 0 0 0 0 0 0 0 0 0 0 0 0 0 0 0 0 0 0 0 0 0 0 0 0 0
0 0 0 0 0 0 0 0 0 0 0 0 0 0 0 0 0 0 0 0 0 0 0 0 0 0 0 0 0 0 0 0 0 0 0 0 0 0 0 0 0 0 0
0 0 0 0 0 0 0 0 0 0 0 0 0 0 0 0 0 0 0 0 0 0 0 0 0 0 0 0 0 0 0 0 0 0 0 0 0 0 0 0 0 0 0
0 0 0 0 0 0 0 0 0 0 0 0 0 0 0 0 0 0 0 0 0 0 0 0 0 0 0 0 0 0 0 0 0 0 0 0 0 0 0 0 0 0 0
0 0 0 0 0 0 0 0 0 0 0 0 0 0 0 0 0 0 0 0 0 0 0 0 0 0 0 0 0 0 0 0 0 0 0 0 0 0 0 0 0 0 0
0 0 0 0 0 0 0 0 0 0 0 0 0 0 0 0 0 0 0 0 0 0 0 0 0 0 0 0 0 0 0 0 0 0 0 0 0 0 0 0 0 0 0
0 0 0 0 0 0 0 0 0 0 0 0 0 0 0 0 0 0 0 0 0 0 0 0 0 0 0 0 0 0 0 0 0 0 0 0 0 0 0 0 0 0 0
0 0 0 0 0 0 0 0 0 0 0 0 0 0 0 0 0 0 0 0 0 0 0 0 0 0 0 0 0 0 0 0 0 0 0 0 0 0 0 0 0 0 0
0 0 0 0 0 0 0 0 0 0 0 0 0 0 0 0 0 0 0 0 0 0 0 0 0 0 0 0 0 0 0 0 0 0 0 0 0 0 0 0 0 0 0
0 0 0 0 0 0 0 0 0 0 0 0 0 0 0 0 0 0 0 0 0 0 0 0 0 0 0 0 0 0 0 0 0 0 0 0 0 0 0 0 0 0 0
0 0 0 0 0 0 0 0 0 0 0 0 0 0 0 0 0 0 0 0 0 0 0 0 0 0 0 0 0 0 0 0 0 0 0 0 0 0 0 0 0 0 0
0 0 0 0 0 0 0 0 0 0 0 0 0 0 0 0 0 0 0 0 0 0 0 0 0 0 0 0 0 0 0 0 0 0 0 0 0 0 0 0 0 0 0
0 0 0 0 0 0 0 0 0 0 0 0 0 0 0 0 0 0 0 0 0 0 0 0 0 0 0 0 0 0 0 0 0 0 0 0 0 0 0 0 0 0 0
0 0 0 0 0 0 0 0 0 0 0 0 0 0 0 0 0 0 0 0 0 0 0 0 0 0 0 0 0 0 0 0 0 0 0 0 0 0 0 0 0 0 0
0 0 0 0 0 0 0 0 0 0 0 0 0 0 0 0 0 0 0 0 0 0 0 0 0 0 0 0 0 0 0 0 0 0 0 0 0 0 0 0 0 0 0
0 0 0 0 0 0 0 0 0 0 0 0 0 0 0 0 0 0 0 0 0 0 0 0 0 0 0 0 0 0 0 0 0 0 0 0 0 0 0 0 0 0 0
0 0 0 0 0 0 0 0 0 0 0 0 0 0 0 0 0 0 0 0 0 0 0 0 0 0 0 0 0 0 0 0 0 0 0 0 0 0 0 0 0 0 0
0 0 0 0 0 0 0 0 0 0 0 0 0 0 0 0 0 0 0 0 0 0 0 0 0 0 0 0 0 0 0 0 0 0 0 0 0 0 0 0 0 0 0
0 0 0 0 0 0 0 0 0 0 0 0 0 0 0 0 0 0 0 0 0 0 0 0 0 0 0 0 0 0 0 0 0 0 0 0 0 0 0 0 0 0 0
0 0 0 0 0 0 0 0 0 0 0 0 0 0 0 0 0 0 0 0 0 0 0 0 0 0 0 0 0 0 0 0 0 0 0 0 0 0 0 0 0 0 0
0 0 0 0 0 0 0 0 0 0 0 0 0 0 0 0 0 0 0 0 0 0 0 0 0 0 0 0 0 0 0 0 0 0 0 0 0 0 0 0 0 0 0
0 0 0 0 0 0 0 0 0 0 0 0 0 0 0 0 0 0 0 0 0 0 0 0 0 0 0 0 0 0 0 0 0 0 0 0 0 0 0 0 0 0 0
0 0 0 0 0 0 0 0 0 0 0 0 0 0 0 0 0 0 0 0 0 0 0 0 0 0 0 0 0 0 0 0 0 0 0 0 0 0 0 0 0 0 0
0 0 0 0 0 0 0 0 0 0 0 0 0 0 0 0 0 0 0 0 0 0 0 0 0 0 0 0 0 0 0 0 0 0 0 0 0 0 0 0 0 0 0
0 0 0 0 0 0 0 0 0 0 0 0 0 0 0 0 0 0 0 0 0 0 0 0 0 0 0 0 0 0 0 0 0 0 0 0 0 0 0 0 0 0 0
Wind_Speed_500mb
24 21 17 14 12 11 7 3 4 3 6 9 10 11 10 13 10 16 21 18 17 21 19 20 19 23 25 28 30 30 31 33 34 35 35 33 34 36 37 38 41 43 45
30 24 23 22 22 19 11 13 8 8 12 15 15 14 13 13 14 18 20 19 18 23 21 17 16 17 20 24 28 28 30 29 29 30 29 30 32 34 35 36 37 39 41
35 33 39 36 32 28 26 22 23 22 21 23 23 20 20 22 22 24 27 24 20 16 18 21 15 15 14 22 23 24 23 23 25 25 27 29 32 32 33 34 36 37 40
42 40 38 43 41 38 36 35 31 30 30 27 28 28 27 30 29 30 30 29 28 24 21 20 17 18 14 17 20 18 19 20 22 24 26 27 28 29 31 33 34 36 38
52 50 45 46 47 46 43 38 36 36 34 31 33 33 33 34 34 32 31 33 31 27 22 20 20 18 20 17 17 16 16 19 21 22 25 26 27 29 31 31 33 35 37
57 57 56 54 54 52 47 48 46 43 41 38 41 41 41 40 38 37 36 37 35 32 29 25 24 22 21 22 16 16 16 17 19 21 23 24 25 27 28 30 32 34 36
64 64 59 63 63 59 56 52 53 53 51 50 47 43 44 45 45 45 46 44 41 38 35 31 28 24 22 21 24 18 16 17 17 18 19 20 21 24 25 27 29 30 32
64 70 66 65 74 66 62 59 63 58 63 58 55 49 33 44 52 53 51 50 45 43 41 38 35 32 28 25 23 24 20 16 15 14 14 16 20 20 21 22 25 27 30
70 71 67 64 74 71 64 68 78 65 64 68 68 48 24 30 46 55 56 54 52 50 46 42 38 35 33 29 24 22 19 17 14 13 12 13 15 16 17 19 21 25 28
71 74 70 68 70 77 86 75 87 81 77 79 76 77 67 36 27 27 54 62 60 56 50 48 44 44 39 34 29 24 22 20 17 14 12 11 10 12 12 14 17 22 26
78 79 76 77 80 75 83 70 82 75 77 83 76 85 85 79 55 48 38 57 67 67 59 55 51 49 43 39 36 32 29 24 20 17 14 12 9 7 7 9 15 19 25
69 84 77 77 85 90 86 81 88 72 86 89 87 95 87 90 83 77 63 54 67 66 67 63 57 55 52 48 42 38 34 30 26 23 18 15 10 4 1 6 12 18 23
69 73 79 90 90 82 89 83 85 76 90 96 85 96 94 95 95 87 75 61 53 68 69 72 64 62 60 55 49 45 39 35 31 27 23 19 14 7 5 6 10 18 24
61 60 63 80 77 79 76 88 87 84 91 91 96 87 108 99 101 100 91 80 56 56 73 74 71 75 69 60 57 50 45 40 35 31 26 23 17 13 10 9 13 19 23
52 55 59 65 70 71 71 72 78 82 84 86 92 95 99 103 103 103 98 94 79 62 78 79 70 77 75 69 62 56 53 46 40 34 31 26 21 17 14 13 15 19 24
47 47 52 55 60 66 73 77 82 85 87 88 93 86 91 103 98 99 98 95 85 78 77 76 74 70 71 75 69 65 60 51 45 39 37 31 23 20 19 17 19 23 25
39 41 45 50 56 60 64 67 70 77 82 83 87 94 94 91 89 95 96 92 90 79 76 68 73 79 76 75 82 73 66 56 50 44 41 33 28 26 23 23 24 25 26
38 41 46 51 55 56 57 60 68 72 76 83 87 87 85 89 94 94 92 97 94 89 89 80 63 74 83 83 84 77 70 61 53 47 43 37 34 29 25 28 27 28 27
38 41 45 48 52 57 60 65 69 70 78 79 81 83 87 92 91 89 92 96 98 97 91 84 79 77 81 86 91 80 72 63 54 50 46 43 38 31 30 31 30 29 29
38 42 47 52 55 59 64 68 69 71 75 74 79 88 82 86 84 90 90 94 96 98 99 93 86 77 79 91 94 87 73 68 59 55 51 47 42 37 33 32 32 30 31
45 46 49 53 58 63 67 69 72 77 80 81 79 85 88 88 87 88 85 90 94 99 92 94 88 78 89 100 99 84 75 63 64 61 53 50 45 43 36 34 33 32 33
55 55 56 58 61 64 65 66 71 79 84 89 90 87 87 92 92 88 85 87 91 92 97 94 88 85 86 90 83 76 83 73 69 63 52 52 49 44 39 36 36 34 34
55 62 66 69 71 71 67 67 70 79 85 90 94 91 93 95 93 90 88 89 91 93 83 87 83 90 79 70 68 66 75 72 72 61 50 52 48 45 40 36 36 34 34
56 61 66 70 75 75 72 69 69 77 86 91 95 97 96 98 100 93 92 93 96 91 80 80 88 89 75 73 61 65 76 71 69 55 55 52 48 45 38 35 36 35 33
54 60 67 74 79 82 75 69 67 76 86 92 94 98 102 103 104 98 89 92 94 84 76 78 76 72 73 57 64 69 81 67 56 54 58 54 50 45 42 37 38 35 31
64 62 64 66 73 79 78 68 62 71 85 90 96 97 101 104 102 98 88 87 90 85 78 76 89 82 68 64 62 68 69 62 56 62 57 52 49 42 39 41 36 30 40
Wind_Direction_500mb
193 193 196 205 203 198 189 201 216 192 194 193 186 178 184 181 193 184 175 155 134 109 98 97 91 91 90 89 86 80 77 75 72 70 68 63 58 57 53 48 46 43 40
206 205 211 210 223 218 227 247 234 231 211 208 207 201 210 216 204 203 205 216 182 143 130 120 111 99 94 93 87 86 81 77 73 72 66 63 61 59 55 51 47 43 40
212 227 224 220 218 221 222 230 226 213 220 213 209 213 215 217 223 221 219 237 233 224 179 141 133 118 111 100 95 89 85 79 78 74 71 68 64 60 56 52 49 45 42
226 229 230 229 229 228 227 225 226 223 212 216 216 216 219 217 220 224 241 234 230 246 267 255 164 134 121 109 102 93 87 84 81 79 75 71 66 63 58 55 52 49 45
228 232 238 237 238 235 235 240 235 228 223 222 222 221 221 227 226 230 228 228 236 243 241 236 238 195 145 130 111 101 97 94 88 85 80 75 70 66 63 58 53 51 48
236 235 235 240 240 238 240 244 238 227 226 230 221 221 224 225 229 228 228 233 236 237 238 238 231 230 221 152 128 119 110 101 97 91 85 80 73 68 65 62 58 53 48
237 242 240 240 238 243 246 248 239 230 226 225 221 218 222 223 227 228 229 231 237 238 237 231 229 225 223 219 151 137 125 117 110 104 96 87 79 73 68 64 58 54 48
239 242 246 246 246 243 243 248 239 237 234 235 229 220 221 231 229 230 233 233 234 237 234 230 226 226 227 217 199 169 152 142 132 123 114 102 87 79 74 67 61 52 44
247 244 246 250 249 249 261 251 247 242 250 236 243 228 215 222 230 234 234 235 234 233 232 231 231 227 224 221 225 213 193 180 165 154 143 117 99 86 74 65 54 44 34
249 249 246 249 248 248 260 256 260 242 261 246 240 232 234 243 218 230 235 236 233 231 230 229 225 225 222 219 215 211 197 188 185 179 163 141 128 103 83 63 43 30 23
256 253 249 249 253 249 249 261 246 248 260 248 260 250 234 241 239 241 242 239 233 230 228 225 223 227 220 216 213 211 204 197 194 193 177 174 152 121 74 39 24 13 11
261 257 244 254 254 244 254 262 252 252 268 249 256 246 246 245 248 242 240 244 237 232 229 224 222 225 220 216 214 212 211 202 199 199 194 198 196 185 47 11 359 358 1
263 264 254 258 250 250 245 250 261 257 266 252 261 261 256 249 252 251 245 247 241 231 225 222 223 227 221 216 216 212 213 212 207 206 208 215 221 232 266 316 336 346 350
264 260 264 258 248 247 256 251 252 256 257 255 260 257 258 254 256 251 251 250 238 231 225 228 225 224 219 218 216 213 214 216 215 212 218 226 229 236 256 294 324 333 340
265 261 260 263 261 260 260 262 264 265 262 261 269 257 260 258 263 254 254 253 250 237 230 226 224 223 222 218 217 216 217 215 217 215 224 231 233 241 260 283 304 320 325
262 257 256 258 259 260 259 258 259 261 261 261 263 262 262 261 264 258 256 255 252 244 251 236 232 228 225 222 221 218 218 217 216 216 224 230 236 247 261 282 300 308 318
262 258 258 260 262 263 264 263 260 259 260 263 263 263 263 264 265 261 257 252 246 243 236 238 237 229 231 224 225 218 218 217 216 220 226 229 236 250 265 280 291 301 310
279 274 268 265 264 263 264 261 264 265 263 262 264 265 267 266 264 260 257 251 246 237 240 236 233 226 223 233 223 221 219 218 217 221 227 230 239 251 267 275 288 298 304
292 286 282 279 277 273 270 268 266 263 263 263 265 266 266 267 264 261 257 250 245 242 235 240 228 224 232 227 219 220 220 220 220 223 229 232 239 252 266 276 283 292 298
295 294 292 288 283 279 276 274 270 267 263 263 266 266 265 267 265 264 259 253 247 241 236 237 233 230 233 225 218 219 220 223 226 227 231 237 241 253 264 272 279 287 293
301 297 294 291 289 285 282 279 274 270 267 264 267 267 263 264 264 262 257 251 245 240 239 233 228 228 232 220 215 216 227 226 228 230 232 240 242 250 262 268 273 280 288
305 300 298 297 292 290 289 286 282 278 272 270 268 270 269 266 265 261 255 249 246 242 237 232 228 230 234 222 217 229 223 227 226 230 237 241 243 250 261 264 268 275 283
307 305 301 296 294 292 291 288 284 280 276 272 269 270 270 268 265 260 254 247 245 244 245 236 231 228 222 223 230 226 230 227 236 231 243 243 244 255 256 258 263 275 280
310 308 305 301 296 292 289 287 285 281 278 274 272 270 270 269 265 262 255 248 244 239 241 242 237 228 235 233 238 229 230 233 227 230 243 246 252 257 256 258 266 276 269
311 309 305 302 301 299 294 286 281 277 276 277 275 272 270 268 266 263 254 248 243 237 236 236 229 225 229 231 223 229 221 220 227 242 245 250 256 259 262 259 271 273 266
316 311 307 305 304 303 300 298 290 281 277 276 276 276 274 273 269 264 256 245 239 233 228 216 221 225 228 226 223 225 221 220 237 246 249 250 256 261 267 269 271 255 290
Wind_Speed_850mb
24 21 17 14 12 11 7 3 4 3 6 9 10 11 10 13 10 16 21 18 17 21 19 20 19 23 25 28 30 30 31 33 34 35 35 33 34 36 37 38 41 43 45
30 24 23 22 22 19 11 13 8 8 12 15 15 14 13 13 14 18 20 19 18 23 21 17 16 17 20 24 28 28 30 29 29 30 29 30 32 34 35 36 37 39 41
35 33 39 36 32 28 26 22 23 22 21 23 23 20 20 22 22 24 27 24 20 16 18 21 15 15 14 22 23 24 23 23 25 25 27 29 32 32 33 34 36 37 40
42 40 38 43 41 38 36 35 31 30 30 27 28 28 27 30 29 30 30 29 28 24 21 20 17 18 14 17 20 18 19 20 22 24 26 27 28 29 31 33 34 36 38
52 50 45 46 47 46 43 38 36 36 34 31 33 33 33 34 34 32 31 33 31 27 22 20 20 18 20 17 17 16 16 19 21 22 25 26 27 29 31 31 33 35 37
57 57 56 54 54 52 47 48 46 43 41 38 41 41 41 40 38 37 36 37 35 32 29 25 24 22 21 22 16 16 16 17 19 21 23 24 25 27 28 30 32 34 36
64 64 59 63 63 59 56 52 53 53 51 50 47 43 44 45 45 45 46 44 41 38 35 31 28 24 22 21 24 18 16 17 17 18 19 20 21 24 25 27 29 30 32
64 70 66 65 74 66 62 59 63 58 63 58 55 49 33 44 52 53 51 50 45 43 41 38 35 32 28 25 23 24 20 16 15 14 14 16 20 20 21 22 25 27 30
70 71 67 64 74 71 64 68 78 65 64 68 68 48 24 30 46 55 56 54 52 50 46 42 38 35 33 29 24 22 19 17 14 13 12 13 15 16 17 19 21 25 28
71 74 70 68 70 77 86 75 87 81 77 79 76 77 67 36 27 27 54 62 60 56 50 48 44 44 39 34 29 24 22 20 17 14 12 11 10 12 12 14 17 22 26
78 79 76 77 80 75 83 70 82 75 77 83 76 85 85 79 55 48 38 57 67 67 59 55 51 49 43 39 36 32 29 24 20 17 14 12 9 7 7 9 15 19 25
69 84 77 77 85 90 86 81 88 72 86 89 87 95 87 90 83 77 63 54 67 66 67 63 57 55 52 48 42 38 34 30 26 23 18 15 10 4 1 6 12 18 23
69 73 79 90 90 82 89 83 85 76 90 96 85 96 94 95 95 87 75 61 53 68 69 72 64 62 60 55 49 45 39 35 31 27 23 19 14 7 5 6 10 18 24
61 60 63 80 77 79 76 88 87 84 91 91 96 87 108 99 101 100 91 80 56 56 73 74 71 75 69 60 57 50 45 40 35 31 26 23 17 13 10 9 13 19 23
52 55 59 65 70 71 71 72 78 82 84 86 92 95 99 103 103 103 98 94 79 62 78 79 70 77 75 69 62 56 53 46 40 34 31 26 21 17 14 13 15 19 24
47 47 52 55 60 66 73 77 82 85 87 88 93 86 91 103 98 99 98 95 85 78 77 76 74 70 71 75 69 65 60 51 45 39 37 31 23 20 19 17 19 23 25
39 41 45 50 56 60 64 67 70 77 82 83 87 94 94 91 89 95 96 92 90 79 76 68 73 79 76 75 82 73 66 56 50 44 41 33 28 26 23 23 24 25 26
38 41 46 51 55 56 57 60 68 72 76 83 87 87 85 89 94 94 92 97 94 89 89 80 63 74 83 83 84 77 70 61 53 47 43 37 34 29 25 28 27 28 27
38 41 45 48 52 57 60 65 69 70 78 79 81 83 87 92 91 89 92 96 98 97 91 84 79 77 81 86 91 80 72 63 54 50 46 43 38 31 30 31 30 29 29
38 42 47 52 55 59 64 68 69 71 75 74 79 88 82 86 84 90 90 94 96 98 99 93 86 77 79 91 94 87 73 68 59 55 51 47 42 37 33 32 32 30 31
45 46 49 53 58 63 67 69 72 77 80 81 79 85 88 88 87 88 85 90 94 99 92 94 88 78 89 100 99 84 75 63 64 61 53 50 45 43 36 34 33 32 33
55 55 56 58 61 64 65 66 71 79 84 89 90 87 87 92 92 88 85 87 91 92 97 94 88 85 86 90 83 76 83 73 69 63 52 52 49 44 39 36 36 34 34
55 62 66 69 71 71 67 67 70 79 85 90 94 91 93 95 93 90 88 89 91 93 83 87 83 90 79 70 68 66 75 72 72 61 50 52 48 45 40 36 36 34 34
56 61 66 70 75 75 72 69 69 77 86 91 95 97 96 98 100 93 92 93 96 91 80 80 88 89 75 73 61 65 76 71 69 55 55 52 48 45 38 35 36 35 33
54 60 67 74 79 82 75 69 67 76 86 92 94 98 102 103 104 98 89 92 94 84 76 78 76 72 73 57 64 69 81 67 56 54 58 54 50 45 42 37 38 35 31
64 62 64 66 73 79 78 68 62 71 85 90 96 97 101 104 102 98 88 87 90 85 78 76 89 82 68 64 62 68 69 62 56 62 57 52 49 42 39 41 36 30 40
Wind_Direction_850mb
193 193 196 205 203 198 189 201 216 192 194 193 186 178 184 181 193 184 175 155 134 109 98 97 91 91 90 89 86 80 77 75 72 70 68 63 58 57 53 48 46 43 40
206 205 211 210 223 218 227 247 234 231 211 208 207 201 210 216 204 203 205 216 182 143 130 120 111 99 94 93 87 86 81 77 73 72 66 63 61 59 55 51 47 43 40
212 227 224 220 218 221 222 230 226 213 220 213 209 213 215 217 223 221 219 237 233 224 179 141 133 118 111 100 95 89 85 79 78 74 71 68 64 60 56 52 49 45 42
226 229 230 229 229 228 227 225 226 223 212 216 216 216 219 217 220 224 241 234 230 246 267 255 164 134 121 109 102 93 87 84 81 79 75 71 66 63 58 55 52 49 45
228 232 238 237 238 235 235 240 235 228 223 222 222 221 221 227 226 230 228 228 236 243 241 236 238 195 145 130 111 101 97 94 88 85 80 75 70 66 63 58 53 51 48
236 235 235 240 240 238 240 244 238 227 226 230 221 221 224 225 229 228 228 233 236 237 238 238 231 230 221 152 128 119 110 101 97 91 85 80 73 68 65 62 58 53 48
237 242 240 240 238 243 246 248 239 230 226 225 221 218 222 223 227 228 229 231 237 238 237 231 229 225 223 219 151 137 125 117 110 104 96 87 79 73 68 64 58 54 48
239 242 246 246 246 243 243 248 239 237 234 235 229 220 221 231 229 230 233 233 234 237 234 230 226 226 227 217 199 169 152 142 132 123 114 102 87 79 74 67 61 52 44
247 244 246 250 249 249 261 251 247 242 250 236 243 228 215 222 230 234 234 235 234 233 232 231 231 227 224 221 225 213 193 180 165 154 143 117 99 86 74 65 54 44 34
249 249 246 249 248 248 260 256 260 242 261 246 240 232 234 243 218 230 235 236 233 231 230 229 225 225 222 219 215 211 197 188 185 179 163 141 128 103 83 63 43 30 23
256 253 249 249 253 249 249 261 246 248 260 248 260 250 234 241 239 241 242 239 233 230 228 225 223 227 220 216 213 211 204 197 194 193 177 174 152 121 74 39 24 13 11
261 257 244 254 254 244 254 262 252 252 268 249 256 246 246 245 248 242 240 244 237 232 229 224 222 225 220 216 214 212 211 202 199 199 194 198 196 185 47 11 359 358 1
263 264 254 258 250 250 245 250 261 257 266 252 261 261 256 249 252 251 245 247 241 231 225 222 223 227 221 216 216 212 213 212 207 206 208 215 221 232 266 316 336 346 350
264 260 264 258 248 247 256 251 252 256 257 255 260 257 258 254 256 251 251 250 238 231 225 228 225 224 219 218 216 213 214 216 215 212 218 226 229 236 256 294 324 333 340
265 261 260 263 261 260 260 262 264 265 262 261 269 257 260 258 263 254 254 253 250 237 230 226 224 223 222 218 217 216 217 215 217 215 224 231 233 241 260 283 304 320 325
262 257 256 258 259 260 259 258 259 261 261 261 263 262 262 261 264 258 256 255 252 244 251 236 232 228 225 222 221 218 218 217 216 216 224 230 236 247 261 282 300 308 318
262 258 258 260 262 263 264 263 260 259 260 263 263 263 263 264 265 261 257 252 246 243 236 238 237 229 231 224 225 218 218 217 216 220 226 229 236 250 265 280 291 301 310
279 274 268 265 264 263 264 261 264 265 263 262 264 265 267 266 264 260 257 251 246 237 240 236 233 226 223 233 223 221 219 218 217 221 227 230 239 251 267 275 288 298 304
292 286 282 279 277 273 270 268 266 263 263 263 265 266 266 267 264 261 257 250 245 242 235 240 228 224 232 227 219 220 220 220 220 223 229 232 239 252 266 276 283 292 298
295 294 292 288 283 279 276 274 270 267 263 263 266 266 265 267 265 264 259 253 247 241 236 237 233 230 233 225 218 219 220 223 226 227 231 237 241 253 264 272 279 287 293
301 297 294 291 289 285 282 279 274 270 267 264 267 267 263 264 264 262 257 251 245 240 239 233 228 228 232 220 215 216 227 226 228 230 232 240 242 250 262 268 273 280 288
305 300 298 297 292 290 289 286 282 278 272 270 268 270 269 266 265 261 255 249 246 242 237 232 228 230 234 222 217 229 223 227 226 230 237 241 243 250 261 264 268 275 283
307 305 301 296 294 292 291 288 284 280 276 272 269 270 270 268 265 260 254 247 245 244 245 236 231 228 222 223 230 226 230 227 236 231 243 243 244 255 256 258 263 275 280
310 308 305 301 296 292 289 287 285 281 278 274 272 270 270 269 265 262 255 248 244 239 241 242 237 228 235 233 238 229 230 233 227 230 243 246 252 257 256 258 266 276 269
311 309 305 302 301 299 294 286 281 277 276 277 275 272 270 268 266 263 254 248 243 237 236 236 229 225 229 231 223 229 221 220 227 242 245 250 256 259 262 259 271 273 266
316 311 307 305 304 303 300 298 290 281 277 276 276 276 274 273 269 264 256 245 239 233 228 216 221 225 228 226 223 225 221 220 237 246 249 250 256 261 267 269 271 255 290